Location: Unspecified
(0.0000°N, 0.0000°E)
Time: 12:35:03
(UTC+01:00)

Cosmos 1295 Rocket - Visible Passes

Search period start: 25 March 2017 00:00
Search period end: 04 April 2017 01:00
Orbit: 945 x 993 km, 82.9° (Epoch: 23 March)

Date Brightness Start Highest point End Pass type
(mag) Time Alt. Az. Time Alt. Az. Time Alt. Az.
25 Mar 4.6 05:51:22 10° N 05:57:30 77° E 06:03:35 10° S visible
26 Mar 7.4 05:34:22 10° ENE 05:35:55 11° E 05:37:29 10° ESE visible
26 Mar 4.6 07:14:58 10° NNW 07:20:51 51° W 07:26:44 10° SSW visible
27 Mar 6.5 05:54:24 10° NNE 05:59:18 25° E 06:04:10 10° SE visible
27 Mar 5.4 07:39:28 10° NW 07:44:13 24° W 07:48:58 10° SW visible
28 Mar 5.1 06:16:44 10° N 06:22:41 54° E 06:28:35 10° SSE visible
29 Mar 4.3 06:39:57 10° N 06:46:02 73° W 06:52:06 10° S visible
30 Mar 6.9 05:20:35 10° NE 05:24:28 18° E 05:28:21 10° SE visible
30 Mar 5.0 07:03:59 10° NNW 07:09:24 34° W 07:14:49 10° SSW visible
31 Mar 5.7 05:42:17 10° NNE 05:47:51 38° E 05:53:24 10° SSE visible
31 Mar 5.8 07:29:19 10° WNW 07:32:46 16° W 07:36:13 10° SW visible
01 Apr 4.4 06:05:07 10° N 06:11:13 81° E 06:17:18 10° S visible
02 Apr 7.2 04:47:39 10° ENE 04:49:39 12° E 04:51:39 10° ESE visible
02 Apr 4.5 06:28:45 10° NNW 06:34:35 48° W 06:40:24 10° SSW visible
03 Apr 6.5 05:08:02 10° NNE 05:15:55 19° SE 05:18:00 10° SE visible
03 Apr 5.9 06:53:20 10° NW 07:00:45 17° SW 07:02:33 10° SW visible
